Terug naar catalogus

STARLINK-4779

ActiefCommunicatieVLEO
NORAD 53864·PAYLOAD·🇺🇸 United States

Gelanceerd Sep 19, 2022 vanaf Cape Canaveral Space Force Station

Loading…

Volgende Passages (komende 24 uur)

TLE

VersSource: CelesTrak SupGP

Epoch: Sep 14, 2026, 21:38 UTC

1 53864C 22114AY  26257.90187500 -.00023997  00000+0 -77211-3 0  2577
2 53864  53.1569 144.5703 0001250  89.6292 219.5941 15.31696346    11

Volg STARLINK-4779 in realtime met AllMySat

Download on the App Store